QPF
0.00 0.00 0.00 0.00 0.01 0.02 0.02 0.01 0.00 0.00 0.00 0.00 0.01 0.01 0.02 0.02 0.02 0.07 0.05 0.05 0.04 0.04 0.09 0.09 0.08 0.09 0.11 0.11 0.10 0.10 0.11 0.10 0.09 0.08 0.09 0.10 0.12 0.12 0.13 0.12 0.12 0.11 0.11 0.13 0.13 0.14 0.12 0.09 0.08
0.01 0.01 0.00 0.01 0.01 0.01 0.02 0.01 0.00 0.00 0.00 0.00 0.00 0.01 0.01 0.02 0.04 0.07 0.06 0.05 0.04 0.05 0.09 0.11 0.09 0.09 0.10 0.11 0.12 0.09 0.09 0.09 0.10 0.09 0.09 0.09 0.11 0.08 0.08 0.10 0.11 0.12 0.11 0.13 0.13 0.11 0.10 0.11 0.11
0.01 0.01 0.00 0.01 0.01 0.01 0.01 0.00 0.00 0.00 0.00 0.00 0.00 0.00 0.00 0.02 0.04 0.05 0.06 0.05 0.05 0.05 0.09 0.14 0.13 0.11 0.12 0.15 0.13 0.10 0.10 0.07 0.08 0.08 0.10 0.13 0.11 0.06 0.06 0.09 0.11 0.12 0.10 0.12 0.12 0.10 0.09 0.09 0.10
0.00 0.00 0.00 0.01 0.01 0.01 0.01 0.00 0.00 0.00 0.00 0.00 0.00 0.00 0.01 0.02 0.04 0.07 0.07 0.05 0.04 0.04 0.09 0.13 0.14 0.16 0.17 0.16 0.12 0.11 0.10 0.07 0.07 0.09 0.10 0.15 0.11 0.06 0.07 0.08 0.10 0.11 0.11 0.13 0.12 0.08 0.06 0.07 0.07
0.00 0.00 0.00 0.01 0.00 0.00 0.00 0.00 0.00 0.00 0.00 0.00 0.00 0.00 0.01 0.02 0.03 0.05 0.05 0.04 0.03 0.04 0.09 0.13 0.13 0.11 0.11 0.11 0.12 0.09 0.08 0.07 0.07 0.09 0.09 0.14 0.14 0.09 0.08 0.08 0.10 0.11 0.14 0.16 0.13 0.09 0.08 0.07 0.08
0.00 0.00 0.00 0.00 0.00 0.00 0.00 0.00 0.00 0.00 0.00 0.00 0.00 0.00 0.01 0.02 0.02 0.04 0.05 0.05 0.05 0.05 0.09 0.15 0.15 0.12 0.10 0.11 0.12 0.09 0.07 0.08 0.08 0.08 0.08 0.11 0.14 0.14 0.12 0.11 0.12 0.12 0.15 0.18 0.14 0.10 0.10 0.09 0.08
0.00 0.00 0.00 0.00 0.00 0.00 0.00 0.00 0.00 0.00 0.00 0.00 0.00 0.01 0.02 0.03 0.03 0.07 0.08 0.05 0.06 0.08 0.10 0.13 0.17 0.15 0.12 0.10 0.10 0.09 0.07 0.08 0.09 0.08 0.09 0.09 0.11 0.14 0.15 0.15 0.14 0.13 0.13 0.12 0.11 0.11 0.11 0.12 0.11
0.00 0.00 0.00 0.00 0.00 0.00 0.00 0.00 0.00 0.01 0.00 0.00 0.00 0.01 0.02 0.04 0.04 0.05 0.06 0.07 0.08 0.08 0.09 0.12 0.14 0.13 0.13 0.12 0.12 0.11 0.10 0.08 0.09 0.09 0.09 0.09 0.11 0.14 0.15 0.14 0.14 0.11 0.09 0.08 0.08 0.11 0.13 0.12 0.12
0.00 0.00 0.00 0.00 0.00 0.00 0.00 0.01 0.00 0.01 0.00 0.00 0.00 0.01 0.02 0.04 0.04 0.05 0.07 0.10 0.09 0.08 0.09 0.08 0.09 0.10 0.11 0.09 0.10 0.13 0.13 0.12 0.13 0.14 0.13 0.14 0.14 0.13 0.14 0.11 0.09 0.09 0.09 0.10 0.09 0.11 0.13 0.12 0.12
0.00 0.00 0.00 0.00 0.00 0.00 0.00 0.00 0.00 0.00 0.00 0.00 0.01 0.01 0.01 0.02 0.03 0.03 0.04 0.08 0.08 0.06 0.05 0.04 0.05 0.08 0.10 0.07 0.09 0.12 0.16 0.17 0.15 0.15 0.16 0.16 0.14 0.18 0.21 0.14 0.10 0.10 0.11 0.10 0.11 0.13 0.14 0.13 0.15
0.00 0.00 0.00 0.00 0.00 0.00 0.00 0.00 0.00 0.00 0.00 0.00 0.01 0.01 0.00 0.00 0.01 0.01 0.02 0.03 0.04 0.03 0.03 0.03 0.03 0.08 0.10 0.06 0.08 0.11 0.12 0.12 0.13 0.13 0.14 0.14 0.17 0.18 0.17 0.14 0.13 0.13 0.11 0.11 0.10 0.11 0.12 0.10 0.11
0.00 0.00 0.00 0.00 0.00 0.00 0.00 0.00 0.00 0.00 0.00 0.00 0.00 0.00 0.00 0.00 0.00 0.00 0.01 0.02 0.03 0.03 0.02 0.02 0.04 0.10 0.11 0.07 0.07 0.08 0.07 0.07 0.10 0.10 0.12 0.13 0.16 0.15 0.13 0.12 0.13 0.12 0.11 0.11 0.10 0.11 0.11 0.10 0.11
0.00 0.00 0.00 0.00 0.00 0.00 0.00 0.00 0.00 0.00 0.00 0.00 0.00 0.00 0.00 0.00 0.00 0.00 0.00 0.01 0.02 0.03 0.02 0.01 0.05 0.09 0.09 0.08 0.07 0.07 0.07 0.05 0.05 0.08 0.09 0.11 0.14 0.14 0.12 0.11 0.11 0.09 0.09 0.09 0.08 0.09 0.10 0.10 0.09
0.00 0.00 0.00 0.00 0.00 0.00 0.00 0.00 0.00 0.00 0.00 0.00 0.00 0.00 0.00 0.00 0.00 0.00 0.00 0.00 0.01 0.02 0.02 0.01 0.04 0.08 0.07 0.06 0.07 0.10 0.10 0.09 0.07 0.07 0.08 0.09 0.11 0.10 0.09 0.10 0.10 0.09 0.08 0.07 0.07 0.09 0.09 0.08 0.08
0.00 0.00 0.00 0.00 0.00 0.00 0.00 0.00 0.00 0.00 0.00 0.00 0.00 0.00 0.00 0.00 0.00 0.00 0.00 0.00 0.00 0.01 0.02 0.01 0.04 0.06 0.05 0.04 0.04 0.06 0.09 0.10 0.10 0.09 0.09 0.08 0.08 0.10 0.10 0.10 0.09 0.08 0.07 0.07 0.08 0.09 0.08 0.07 0.07
0.00 0.00 0.00 0.00 0.00 0.00 0.00 0.01 0.00 0.00 0.00 0.01 0.00 0.00 0.00 0.00 0.00 0.00 0.01 0.01 0.01 0.01 0.01 0.01 0.02 0.04 0.03 0.03 0.03 0.03 0.04 0.06 0.08 0.08 0.10 0.10 0.10 0.11 0.11 0.10 0.09 0.08 0.08 0.08 0.09 0.10 0.10 0.11 0.10
0.00 0.00 0.00 0.00 0.00 0.00 0.00 0.01 0.00 0.00 0.00 0.00 0.00 0.00 0.00 0.00 0.00 0.00 0.01 0.01 0.02 0.02 0.01 0.01 0.01 0.02 0.03 0.04 0.03 0.03 0.03 0.04 0.06 0.09 0.12 0.11 0.12 0.11 0.11 0.14 0.16 0.13 0.11 0.11 0.08 0.10 0.11 0.12 0.12
0.00 0.00 0.00 0.00 0.00 0.00 0.00 0.01 0.01 0.00 0.00 0.00 0.00 0.00 0.00 0.00 0.00 0.00 0.01 0.01 0.01 0.01 0.01 0.02 0.03 0.04 0.05 0.04 0.04 0.05 0.05 0.06 0.09 0.12 0.14 0.12 0.13 0.14 0.14 0.14 0.16 0.14 0.14 0.14 0.12 0.11 0.10 0.09 0.10
0.00 0.00 0.00 0.00 0.00 0.00 0.00 0.00 0.00 0.00 0.00 0.00 0.00 0.00 0.00 0.00 0.00 0.00 0.00 0.01 0.01 0.01 0.01 0.02 0.05 0.06 0.05 0.04 0.05 0.07 0.07 0.07 0.08 0.10 0.12 0.11 0.11 0.14 0.13 0.11 0.12 0.11 0.12 0.13 0.11 0.09 0.08 0.07 0.08
0.00 0.00 0.00 0.00 0.00 0.00 0.00 0.00 0.00 0.00 0.00 0.00 0.00 0.00 0.00 0.00 0.00 0.00 0.01 0.01 0.01 0.01 0.00 0.01 0.02 0.04 0.04 0.05 0.08 0.11 0.11 0.07 0.05 0.06 0.09 0.11 0.10 0.11 0.10 0.10 0.11 0.11 0.12 0.12 0.10 0.07 0.07 0.06 0.06
0.00 0.00 0.00 0.00 0.00 0.00 0.00 0.00 0.00 0.00 0.00 0.00 0.00 0.00 0.00 0.00 0.00 0.00 0.01 0.01 0.00 0.00 0.00 0.00 0.01 0.03 0.03 0.04 0.06 0.09 0.11 0.08 0.06 0.06 0.07 0.08 0.09 0.10 0.12 0.10 0.10 0.11 0.10 0.09 0.07 0.05 0.06 0.06 0.07
0.00 0.00 0.00 0.00 0.00 0.01 0.00 0.01 0.00 0.00 0.00 0.00 0.00 0.00 0.01 0.00 0.00 0.00 0.00 0.01 0.01 0.01 0.01 0.01 0.01 0.02 0.02 0.03 0.03 0.03 0.04 0.05 0.05 0.05 0.05 0.06 0.06 0.07 0.08 0.08 0.09 0.10 0.09 0.08 0.06 0.05 0.05 0.07 0.09
0.00 0.00 0.00 0.00 0.00 0.00 0.00 0.00 0.00 0.00 0.00 0.00 0.00 0.00 0.00 0.00 0.00 0.00 0.00 0.01 0.02 0.01 0.01 0.01 0.01 0.02 0.02 0.03 0.03 0.02 0.02 0.03 0.02 0.03 0.03 0.04 0.04 0.03 0.04 0.06 0.08 0.10 0.08 0.07 0.06 0.06 0.06 0.07 0.07
0.00 0.00 0.00 0.00 0.00 0.00 0.00 0.00 0.00 0.00 0.00 0.00 0.00 0.00 0.00 0.00 0.00 0.00 0.01 0.01 0.02 0.01 0.01 0.01 0.01 0.02 0.02 0.03 0.03 0.03 0.02 0.03 0.03 0.03 0.03 0.03 0.03 0.03 0.03 0.03 0.05 0.06 0.05 0.06 0.06 0.05 0.05 0.05 0.06
0.00 0.00 0.00 0.01 0.01 0.00 0.00 0.00 0.00 0.00 0.00 0.00 0.00 0.00 0.00 0.00 0.00 0.00 0.01 0.01 0.01 0.01 0.01 0.01 0.01 0.02 0.02 0.03 0.04 0.03 0.03 0.02 0.02 0.03 0.03 0.03 0.02 0.02 0.03 0.02 0.04 0.05 0.05 0.05 0.06 0.04 0.04 0.04 0.06
0.00 0.00 0.00 0.00 0.00 0.00 0.00 0.00 0.00 0.00 0.00 0.00 0.01 0.00 0.00 0.00 0.01 0.01 0.02 0.02 0.01 0.01 0.01 0.01 0.01 0.02 0.02 0.03 0.03 0.03 0.03 0.01 0.01 0.02 0.02 0.01 0.01 0.01 0.02 0.02 0.03 0.04 0.04 0.04 0.04 0.03 0.03 0.04 0.05
0.00 0.00 0.00 0.00 0.00 0.01 0.00 0.00 0.00 0.00 0.00 0.00 0.00 0.00 0.00 0.00 0.00 0.01 0.01 0.01 0.01 0.02 0.02 0.01 0.01 0.02 0.02 0.02 0.03 0.03 0.02 0.01 0.02 0.02 0.02 0.01 0.01 0.01 0.02 0.01 0.03 0.04 0.04 0.03 0.04 0.04 0.03 0.04 0.05
0.00 0.00 0.00 0.00 0.00 0.01 0.00 0.00 0.00 0.00 0.00 0.00 0.00 0.00 0.00 0.01 0.00 0.00 0.00 0.00 0.01 0.02 0.03 0.01 0.01 0.02 0.02 0.03 0.03 0.02 0.01 0.01 0.01 0.01 0.01 0.01 0.01 0.02 0.02 0.02 0.03 0.04 0.03 0.03 0.04 0.04 0.03 0.05 0.05
0.00 0.00 0.00 0.00 0.00 0.01 0.01 0.00 0.00 0.00 0.00 0.00 0.00 0.00 0.01 0.01 0.01 0.00 0.00 0.00 0.01 0.02 0.03 0.02 0.02 0.03 0.04 0.03 0.03 0.02 0.01 0.01 0.01 0.01 0.01 0.02 0.03 0.04 0.04 0.03 0.03 0.03 0.03 0.03 0.03 0.03 0.03 0.04 0.05
0.00 0.00 0.00 0.00 0.00 0.00 0.01 0.01 0.00 0.00 0.00 0.01 0.00 0.00 0.00 0.00 0.00 0.00 0.00 0.01 0.01 0.01 0.02 0.02 0.02 0.04 0.05 0.04 0.03 0.02 0.01 0.01 0.02 0.02 0.02 0.03 0.04 0.05 0.04 0.04 0.03 0.03 0.03 0.03 0.03 0.03 0.03 0.04 0.05
MSLP
1006.04 1006.62 1007.40 1008.28 1009.14 1009.88 1010.44 1010.79 1010.97 1011.05 1011.10 1011.18 1011.33 1011.54 1011.76 1011.95 1012.04 1011.99 1011.83 1011.59 1011.33 1011.12 1011.02 1011.04 1011.15 1011.30 1011.42 1011.44 1011.33 1011.09 1010.77 1010.41 1010.12 1009.92 1009.87 1009.95 1010.13 1010.36 1010.58 1010.77 1010.93 1011.07 1011.24 1011.47 1011.78 1012.17 1012.62 1013.07 1013.48
1006.20 1006.91 1007.80 1008.75 1009.65 1010.39 1010.90 1011.17 1011.24 1011.18 1011.10 1011.07 1011.12 1011.26 1011.45 1011.64 1011.75 1011.76 1011.67 1011.50 1011.32 1011.19 1011.16 1011.24 1011.42 1011.63 1011.82 1011.91 1011.89 1011.74 1011.50 1011.23 1010.99 1010.85 1010.81 1010.88 1011.03 1011.20 1011.37 1011.50 1011.61 1011.72 1011.86 1012.08 1012.38 1012.75 1013.16 1013.55 1013.88
1006.56 1007.35 1008.31 1009.29 1010.18 1010.88 1011.31 1011.48 1011.44 1011.26 1011.07 1010.93 1010.90 1010.98 1011.14 1011.31 1011.45 1011.51 1011.48 1011.39 1011.28 1011.23 1011.26 1011.40 1011.62 1011.88 1012.12 1012.28 1012.34 1012.28 1012.13 1011.96 1011.81 1011.72 1011.72 1011.79 1011.91 1012.04 1012.15 1012.24 1012.30 1012.38 1012.51 1012.71 1012.99 1013.33 1013.68 1014.01 1014.25
1007.00 1007.86 1008.82 1009.78 1010.62 1011.23 1011.58 1011.66 1011.52 1011.27 1010.99 1010.79 1010.70 1010.74 1010.88 1011.06 1011.21 1011.31 1011.33 1011.30 1011.27 1011.27 1011.35 1011.52 1011.77 1012.06 1012.33 1012.54 1012.65 1012.67 1012.62 1012.54 1012.48 1012.46 1012.50 1012.59 1012.70 1012.81 1012.89 1012.94 1012.98 1013.05 1013.16 1013.35 1013.61 1013.91 1014.20 1014.45 1014.60
1007.45 1008.31 1009.23 1010.12 1010.86 1011.38 1011.64 1011.65 1011.47 1011.18 1010.88 1010.67 1010.58 1010.61 1010.74 1010.93 1011.10 1011.22 1011.28 1011.30 1011.31 1011.35 1011.45 1011.64 1011.90 1012.18 1012.46 1012.68 1012.83 1012.90 1012.92 1012.92 1012.94 1012.99 1013.08 1013.20 1013.33 1013.44 1013.51 1013.56 1013.60 1013.67 1013.79 1013.97 1014.20 1014.46 1014.70 1014.86 1014.93
1007.83 1008.64 1009.47 1010.24 1010.87 1011.28 1011.47 1011.44 1011.26 1011.00 1010.75 1010.58 1010.53 1010.60 1010.75 1010.95 1011.13 1011.27 1011.36 1011.40 1011.43 1011.48 1011.60 1011.78 1012.02 1012.28 1012.54 1012.75 1012.90 1012.99 1013.05 1013.11 1013.18 1013.29 1013.43 1013.59 1013.74 1013.87 1013.96 1014.03 1014.10 1014.18 1014.31 1014.49 1014.71 1014.93 1015.11 1015.21 1015.21
1008.11 1008.83 1009.53 1010.16 1010.65 1010.97 1011.10 1011.08 1010.94 1010.76 1010.60 1010.53 1010.56 1010.69 1010.89 1011.11 1011.30 1011.45 1011.54 1011.59 1011.62 1011.68 1011.80 1011.96 1012.17 1012.40 1012.61 1012.79 1012.92 1013.00 1013.07 1013.14 1013.24 1013.39 1013.56 1013.75 1013.93 1014.09 1014.22 1014.32 1014.41 1014.52 1014.67 1014.86 1015.07 1015.26 1015.40 1015.45 1015.39
1008.29 1008.89 1009.45 1009.93 1010.29 1010.52 1010.61 1010.61 1010.54 1010.47 1010.45 1010.50 1010.64 1010.85 1011.10 1011.35 1011.55 1011.69 1011.78 1011.82 1011.86 1011.92 1012.02 1012.17 1012.35 1012.54 1012.71 1012.85 1012.94 1013.00 1013.04 1013.11 1013.21 1013.36 1013.55 1013.75 1013.96 1014.14 1014.28 1014.41 1014.53 1014.67 1014.83 1015.03 1015.23 1015.40 1015.51 1015.53 1015.44
1008.40 1008.88 1009.29 1009.62 1009.86 1010.01 1010.08 1010.11 1010.13 1010.18 1010.29 1010.47 1010.72 1011.02 1011.32 1011.58 1011.79 1011.93 1012.00 1012.04 1012.08 1012.14 1012.24 1012.39 1012.56 1012.72 1012.87 1012.96 1013.01 1013.03 1013.05 1013.08 1013.16 1013.29 1013.47 1013.67 1013.87 1014.06 1014.22 1014.36 1014.49 1014.64 1014.81 1015.00 1015.19 1015.35 1015.44 1015.44 1015.34
1008.47 1008.84 1009.12 1009.32 1009.46 1009.54 1009.59 1009.65 1009.73 1009.88 1010.11 1010.40 1010.75 1011.11 1011.45 1011.74 1011.95 1012.08 1012.15 1012.19 1012.23 1012.31 1012.42 1012.58 1012.76 1012.93 1013.06 1013.13 1013.16 1013.14 1013.12 1013.11 1013.15 1013.25 1013.40 1013.57 1013.76 1013.94 1014.09 1014.22 1014.35 1014.48 1014.64 1014.81 1014.99 1015.13 1015.22 1015.21 1015.12
1008.52 1008.80 1008.98 1009.09 1009.14 1009.16 1009.19 1009.26 1009.39 1009.60 1009.91 1010.28 1010.68 1011.09 1011.46 1011.76 1011.97 1012.10 1012.17 1012.22 1012.28 1012.38 1012.53 1012.72 1012.93 1013.12 1013.26 1013.33 1013.35 1013.31 1013.25 1013.21 1013.21 1013.27 1013.38 1013.52 1013.68 1013.83 1013.96 1014.07 1014.17 1014.28 1014.40 1014.55 1014.69 1014.82 1014.90 1014.90 1014.81
1008.57 1008.79 1008.90 1008.94 1008.92 1008.90 1008.89 1008.95 1009.09 1009.33 1009.67 1010.07 1010.51 1010.94 1011.32 1011.63 1011.85 1011.98 1012.06 1012.13 1012.22 1012.36 1012.55 1012.78 1013.03 1013.26 1013.43 1013.52 1013.54 1013.50 1013.42 1013.35 1013.32 1013.34 1013.42 1013.53 1013.66 1013.78 1013.89 1013.97 1014.03 1014.10 1014.18 1014.28 1014.40 1014.50 1014.57 1014.57 1014.50
1008.62 1008.80 1008.88 1008.87 1008.81 1008.74 1008.70 1008.73 1008.84 1009.07 1009.39 1009.79 1010.23 1010.66 1011.05 1011.36 1011.59 1011.75 1011.85 1011.95 1012.07 1012.24 1012.48 1012.76 1013.06 1013.33 1013.53 1013.66 1013.69 1013.65 1013.57 1013.49 1013.44 1013.44 1013.49 1013.59 1013.70 1013.81 1013.90 1013.95 1013.99 1014.01 1014.05 1014.11 1014.18 1014.26 1014.31 1014.32 1014.26
1008.67 1008.84 1008.90 1008.87 1008.78 1008.67 1008.59 1008.56 1008.63 1008.80 1009.08 1009.44 1009.86 1010.29 1010.68 1011.01 1011.26 1011.45 1011.58 1011.71 1011.87 1012.08 1012.35 1012.67 1013.00 1013.31 1013.55 1013.70 1013.76 1013.73 1013.66 1013.57 1013.52 1013.52 1013.57 1013.67 1013.79 1013.90 1013.99 1014.04 1014.06 1014.05 1014.05 1014.07 1014.11 1014.15 1014.19 1014.20 1014.15
1008.72 1008.89 1008.95 1008.90 1008.80 1008.66 1008.53 1008.44 1008.44 1008.54 1008.76 1009.07 1009.45 1009.87 1010.27 1010.63 1010.92 1011.14 1011.32 1011.48 1011.67 1011.90 1012.19 1012.53 1012.88 1013.21 1013.48 1013.66 1013.73 1013.72 1013.66 1013.59 1013.54 1013.55 1013.62 1013.74 1013.89 1014.03 1014.15 1014.21 1014.23 1014.22 1014.20 1014.18 1014.18 1014.20 1014.23 1014.24 1014.21
1008.80 1008.96 1009.01 1008.97 1008.85 1008.68 1008.50 1008.35 1008.27 1008.29 1008.43 1008.69 1009.04 1009.44 1009.86 1010.26 1010.59 1010.86 1011.08 1011.28 1011.49 1011.74 1012.03 1012.37 1012.73 1013.07 1013.35 1013.54 1013.63 1013.64 1013.59 1013.53 1013.50 1013.53 1013.63 1013.79 1013.98 1014.18 1014.34 1014.44 1014.49 1014.48 1014.45 1014.41 1014.39 1014.39 1014.41 1014.42 1014.40
1008.90 1009.05 1009.10 1009.06 1008.94 1008.74 1008.51 1008.29 1008.12 1008.06 1008.12 1008.31 1008.62 1009.02 1009.46 1009.89 1010.28 1010.61 1010.88 1011.11 1011.34 1011.59 1011.88 1012.21 1012.56 1012.89 1013.18 1013.38 1013.49 1013.52 1013.49 1013.45 1013.44 1013.50 1013.63 1013.83 1014.08 1014.33 1014.55 1014.70 1014.78 1014.79 1014.76 1014.71 1014.67 1014.66 1014.67 1014.68 1014.68
1009.03 1009.16 1009.22 1009.18 1009.05 1008.84 1008.56 1008.27 1008.01 1007.84 1007.81 1007.94 1008.20 1008.59 1009.05 1009.52 1009.96 1010.34 1010.66 1010.93 1011.17 1011.43 1011.71 1012.03 1012.37 1012.71 1013.00 1013.21 1013.35 1013.40 1013.39 1013.38 1013.39 1013.47 1013.63 1013.88 1014.17 1014.47 1014.74 1014.95 1015.07 1015.11 1015.08 1015.03 1014.98 1014.95 1014.95 1014.97 1014.99
1009.16 1009.28 1009.35 1009.32 1009.20 1008.96 1008.64 1008.27 1007.92 1007.65 1007.52 1007.55 1007.76 1008.12 1008.58 1009.08 1009.57 1010.00 1010.37 1010.67 1010.94 1011.20 1011.49 1011.81 1012.15 1012.49 1012.80 1013.05 1013.22 1013.30 1013.33 1013.34 1013.38 1013.48 1013.67 1013.93 1014.26 1014.60 1014.91 1015.16 1015.31 1015.37 1015.36 1015.30 1015.24 1015.20 1015.19 1015.22 1015.27
1009.25 1009.38 1009.47 1009.48 1009.36 1009.12 1008.75 1008.31 1007.85 1007.46 1007.20 1007.13 1007.26 1007.56 1008.01 1008.52 1009.04 1009.52 1009.93 1010.28 1010.58 1010.86 1011.16 1011.49 1011.86 1012.23 1012.58 1012.88 1013.10 1013.24 1013.31 1013.36 1013.42 1013.54 1013.73 1014.01 1014.35 1014.71 1015.04 1015.31 1015.49 1015.57 1015.56 1015.50 1015.43 1015.38 1015.36 1015.40 1015.47
1009.26 1009.43 1009.57 1009.62 1009.54 1009.29 1008.89 1008.36 1007.80 1007.27 1006.87 1006.67 1006.68 1006.91 1007.30 1007.81 1008.35 1008.86 1009.31 1009.70 1010.04 1010.36 1010.69 1011.06 1011.46 1011.88 1012.29 1012.66 1012.95 1013.16 1013.29 1013.39 1013.48 1013.61 1013.81 1014.08 1014.41 1014.77 1015.11 1015.39 1015.58 1015.67 1015.67 1015.62 1015.54 1015.48 1015.47 1015.51 1015.59
1009.15 1009.38 1009.60 1009.72 1009.69 1009.46 1009.02 1008.43 1007.74 1007.07 1006.52 1006.16 1006.04 1006.16 1006.48 1006.95 1007.49 1008.02 1008.51 1008.95 1009.33 1009.70 1010.08 1010.49 1010.95 1011.43 1011.92 1012.36 1012.74 1013.02 1013.23 1013.38 1013.50 1013.65 1013.85 1014.11 1014.43 1014.77 1015.11 1015.39 1015.59 1015.69 1015.71 1015.66 1015.60 1015.54 1015.53 1015.58 1015.68
1008.91 1009.23 1009.55 1009.77 1009.80 1009.60 1009.15 1008.49 1007.69 1006.88 1006.16 1005.64 1005.36 1005.36 1005.60 1006.01 1006.53 1007.07 1007.60 1008.07 1008.50 1008.92 1009.35 1009.81 1010.33 1010.88 1011.44 1011.96 1012.42 1012.79 1013.08 1013.28 1013.45 1013.62 1013.81 1014.07 1014.37 1014.70 1015.03 1015.31 1015.52 1015.65 1015.69 1015.68 1015.63 1015.60 1015.61 1015.67 1015.78
1008.56 1009.00 1009.43 1009.75 1009.86 1009.70 1009.25 1008.54 1007.64 1006.70 1005.83 1005.14 1004.72 1004.59 1004.72 1005.07 1005.56 1006.11 1006.65 1007.17 1007.65 1008.11 1008.58 1009.10 1009.66 1010.26 1010.88 1011.48 1012.01 1012.46 1012.81 1013.08 1013.29 1013.48 1013.69 1013.94 1014.24 1014.56 1014.89 1015.19 1015.42 1015.58 1015.67 1015.69 1015.69 1015.70 1015.73 1015.82 1015.95
1008.17 1008.71 1009.25 1009.68 1009.87 1009.76 1009.31 1008.56 1007.60 1006.54 1005.54 1004.72 1004.16 1003.91 1003.96 1004.24 1004.70 1005.24 1005.80 1006.35 1006.87 1007.37 1007.88 1008.42 1009.02 1009.66 1010.31 1010.95 1011.54 1012.04 1012.45 1012.77 1013.03 1013.25 1013.48 1013.75 1014.05 1014.38 1014.72 1015.04 1015.32 1015.53 1015.67 1015.76 1015.81 1015.87 1015.94 1016.06 1016.21
1007.81 1008.43 1009.06 1009.57 1009.83 1009.76 1009.32 1008.56 1007.55 1006.42 1005.33 1004.41 1003.75 1003.41 1003.38 1003.61 1004.04 1004.58 1005.15 1005.72 1006.27 1006.79 1007.32 1007.88 1008.49 1009.13 1009.80 1010.46 1011.07 1011.61 1012.06 1012.42 1012.72 1012.98 1013.24 1013.53 1013.85 1014.20 1014.57 1014.93 1015.25 1015.52 1015.72 1015.88 1016.00 1016.11 1016.24 1016.39 1016.57
1007.56 1008.22 1008.90 1009.44 1009.74 1009.69 1009.27 1008.50 1007.47 1006.32 1005.18 1004.21 1003.50 1003.10 1003.02 1003.23 1003.64 1004.17 1004.76 1005.34 1005.91 1006.45 1006.99 1007.55 1008.14 1008.77 1009.43 1010.08 1010.69 1011.24 1011.71 1012.10 1012.44 1012.73 1013.03 1013.35 1013.70 1014.08 1014.48 1014.88 1015.25 1015.58 1015.85 1016.07 1016.26 1016.43 1016.60 1016.78 1016.98
1007.47 1008.11 1008.77 1009.30 1009.58 1009.53 1009.11 1008.36 1007.35 1006.20 1005.08 1004.11 1003.40 1002.99 1002.90 1003.09 1003.50 1004.04 1004.63 1005.23 1005.81 1006.36 1006.90 1007.45 1008.02 1008.62 1009.24 1009.86 1010.46 1011.00 1011.48 1011.89 1012.25 1012.58 1012.91 1013.26 1013.64 1014.05 1014.49 1014.93 1015.34 1015.71 1016.03 1016.31 1016.54 1016.76 1016.97 1017.18 1017.40
1007.53 1008.10 1008.66 1009.12 1009.34 1009.25 1008.83 1008.10 1007.14 1006.05 1005.00 1004.09 1003.42 1003.05 1002.99 1003.19 1003.61 1004.15 1004.76 1005.36 1005.95 1006.50 1007.04 1007.57 1008.12 1008.68 1009.27 1009.85 1010.42 1010.94 1011.41 1011.83 1012.20 1012.56 1012.91 1013.29 1013.70 1014.14 1014.60 1015.06 1015.50 1015.90 1016.25 1016.55 1016.82 1017.06 1017.30 1017.53 1017.76
1007.72 1008.14 1008.56 1008.88 1009.00 1008.85 1008.42 1007.72 1006.83 1005.85 1004.90 1004.10 1003.53 1003.24 1003.22 1003.46 1003.88 1004.44 1005.04 1005.65 1006.24 1006.80 1007.33 1007.85 1008.37 1008.92 1009.47 1010.02 1010.55 1011.05 1011.50 1011.92 1012.30 1012.67 1013.05 1013.44 1013.87 1014.32 1014.79 1015.26 1015.70 1016.10 1016.46 1016.77 1017.04 1017.30 1017.54 1017.78 1018.02
Thickness
5815 5819 5820 5815 5807 5800 5789 5796 5802 5799 5799 5804 5803 5799 5792 5785 5779 5771 5791 5799 5799 5798 5796 5792 5789 5788 5787 5786 5785 5784 5783 5782 5781 5780 5780 5779 5778 5778 5778 5777 5776 5775 5773 5772 5771 5769 5768 5766 5765
5824 5822 5818 5815 5804 5786 5785 5800 5800 5800 5803 5806 5804 5799 5793 5787 5790 5789 5793 5796 5797 5796 5795 5792 5788 5786 5785 5784 5783 5782 5781 5780 5779 5779 5778 5777 5777 5777 5778 5777 5775 5774 5772 5772 5771 5769 5767 5766 5765
5826 5825 5818 5815 5802 5790 5788 5802 5802 5805 5808 5805 5799 5798 5791 5784 5788 5789 5793 5796 5796 5794 5792 5789 5785 5784 5783 5782 5781 5780 5779 5778 5778 5777 5776 5776 5775 5775 5776 5775 5774 5773 5772 5771 5770 5768 5767 5765 5764
5827 5823 5821 5812 5798 5802 5804 5807 5809 5805 5805 5805 5800 5792 5791 5790 5792 5793 5794 5795 5793 5792 5790 5786 5783 5781 5780 5779 5778 5778 5777 5777 5777 5776 5775 5774 5774 5774 5774 5773 5773 5772 5771 5770 5769 5767 5766 5765 5764
5830 5823 5816 5808 5804 5809 5815 5816 5813 5806 5802 5801 5800 5788 5784 5791 5795 5794 5793 5793 5791 5790 5789 5785 5780 5778 5778 5777 5777 5776 5775 5775 5775 5774 5772 5772 5771 5771 5772 5772 5771 5771 5770 5769 5767 5766 5765 5764 5763
5827 5826 5812 5801 5803 5812 5818 5820 5815 5807 5802 5801 5798 5790 5783 5791 5791 5791 5792 5791 5791 5789 5787 5783 5778 5777 5776 5775 5774 5774 5773 5773 5772 5771 5770 5770 5769 5770 5770 5770 5770 5770 5768 5767 5766 5765 5764 5764 5763
5823 5823 5813 5810 5807 5809 5815 5822 5814 5807 5800 5801 5803 5791 5785 5788 5791 5792 5791 5790 5789 5787 5785 5782 5780 5777 5775 5774 5773 5773 5772 5771 5770 5769 5769 5768 5768 5769 5768 5769 5769 5769 5767 5766 5766 5765 5764 5763 5762
5834 5828 5819 5816 5810 5809 5820 5822 5818 5812 5804 5810 5808 5792 5785 5788 5792 5792 5790 5788 5785 5784 5783 5780 5779 5778 5777 5775 5772 5771 5770 5769 5769 5768 5767 5767 5767 5767 5767 5768 5768 5767 5767 5766 5765 5764 5764 5763 5761
5837 5826 5816 5817 5815 5816 5824 5819 5818 5821 5812 5808 5807 5802 5798 5795 5793 5789 5785 5783 5780 5779 5780 5779 5779 5777 5776 5776 5773 5771 5769 5768 5767 5767 5766 5766 5768 5769 5768 5768 5768 5767 5766 5765 5764 5764 5764 5763 5762
5834 5822 5820 5828 5831 5827 5825 5821 5819 5815 5806 5802 5800 5799 5798 5794 5790 5785 5781 5777 5776 5775 5777 5778 5777 5776 5776 5775 5773 5772 5770 5768 5767 5767 5767 5766 5766 5767 5768 5766 5767 5767 5765 5764 5764 5763 5763 5764 5765
5835 5825 5831 5836 5839 5836 5828 5824 5825 5816 5804 5805 5799 5795 5794 5791 5787 5784 5780 5778 5776 5775 5776 5777 5775 5775 5775 5774 5772 5771 5769 5767 5766 5765 5765 5764 5765 5766 5766 5766 5766 5766 5766 5766 5765 5765 5767 5767 5766
5834 5835 5838 5839 5841 5837 5831 5828 5823 5818 5814 5818 5812 5804 5797 5791 5787 5784 5780 5778 5776 5775 5775 5775 5775 5773 5772 5772 5771 5769 5769 5767 5766 5765 5764 5764 5765 5765 5765 5765 5766 5767 5767 5766 5767 5766 5766 5766 5765
5834 5836 5841 5843 5842 5840 5835 5828 5823 5819 5822 5821 5813 5805 5798 5794 5790 5787 5784 5781 5777 5774 5774 5774 5773 5771 5770 5769 5769 5769 5768 5768 5766 5764 5764 5763 5764 5764 5765 5765 5765 5767 5767 5766 5765 5766 5765 5765 5764
5839 5839 5840 5842 5841 5838 5830 5827 5823 5819 5823 5816 5809 5803 5801 5796 5792 5787 5783 5779 5776 5774 5774 5774 5773 5771 5769 5768 5767 5767 5767 5766 5766 5765 5764 5762 5763 5764 5764 5765 5765 5766 5766 5766 5765 5765 5764 5764 5763
5844 5836 5836 5838 5839 5837 5833 5819 5820 5824 5821 5812 5807 5804 5800 5797 5793 5788 5785 5781 5780 5777 5776 5774 5773 5771 5769 5768 5767 5768 5767 5767 5766 5765 5763 5762 5763 5763 5763 5765 5765 5765 5765 5764 5764 5763 5764 5763 5763
5840 5833 5824 5833 5837 5836 5826 5811 5823 5827 5819 5810 5807 5803 5800 5796 5795 5792 5789 5785 5783 5780 5777 5775 5776 5772 5769 5768 5767 5768 5768 5767 5766 5765 5764 5762 5763 5762 5762 5764 5764 5764 5764 5764 5763 5764 5763 5763 5762
5829 5822 5821 5826 5836 5834 5826 5815 5822 5827 5820 5812 5808 5805 5801 5797 5796 5794 5792 5788 5785 5781 5778 5776 5775 5773 5771 5769 5767 5768 5766 5766 5766 5765 5765 5763 5763 5762 5763 5763 5763 5763 5763 5763 5764 5763 5763 5761 5760
5817 5821 5820 5820 5831 5829 5822 5819 5824 5826 5822 5816 5812 5808 5804 5799 5797 5797 5794 5792 5788 5784 5780 5777 5775 5773 5771 5770 5768 5767 5766 5766 5766 5766 5764 5763 5763 5762 5762 5762 5761 5762 5763 5761 5761 5759 5759 5760 5759
5825 5820 5817 5823 5832 5825 5819 5819 5822 5824 5822 5817 5814 5811 5807 5803 5803 5800 5797 5794 5790 5785 5781 5778 5775 5774 5771 5770 5769 5766 5765 5765 5766 5765 5764 5763 5763 5762 5761 5762 5760 5760 5761 5760 5760 5759 5758 5757 5758
5822 5816 5816 5823 5828 5822 5817 5818 5824 5823 5820 5820 5817 5813 5810 5807 5803 5799 5797 5795 5791 5786 5783 5779 5776 5775 5773 5772 5771 5769 5768 5768 5767 5766 5764 5763 5763 5762 5763 5761 5761 5760 5758 5758 5757 5756 5756 5756 5757
5817 5816 5816 5814 5821 5824 5817 5813 5817 5821 5822 5821 5820 5819 5816 5811 5805 5801 5798 5796 5793 5789 5786 5783 5779 5777 5775 5773 5772 5770 5767 5766 5766 5764 5764 5763 5762 5762 5761 5761 5761 5759 5759 5758 5756 5756 5754 5753 5754
5810 5824 5821 5816 5811 5809 5813 5798 5813 5818 5816 5817 5818 5819 5817 5815 5810 5806 5802 5798 5796 5793 5791 5786 5782 5778 5776 5774 5772 5770 5766 5764 5764 5764 5764 5763 5762 5761 5761 5760 5759 5759 5759 5757 5757 5758 5756 5753 5751
5817 5825 5820 5817 5812 5808 5811 5804 5810 5818 5810 5813 5817 5819 5820 5817 5813 5808 5805 5801 5799 5797 5794 5789 5783 5779 5777 5775 5773 5770 5768 5767 5767 5766 5763 5762 5762 5761 5760 5759 5758 5757 5757 5756 5755 5755 5754 5754 5752
5821 5817 5814 5815 5813 5792 5802 5799 5798 5813 5810 5814 5817 5819 5819 5817 5814 5809 5807 5804 5800 5798 5794 5790 5783 5779 5777 5775 5773 5770 5768 5767 5765 5764 5763 5762 5763 5762 5761 5759 5757 5756 5756 5755 5754 5753 5752 5752 5751
5814 5803 5791 5787 5789 5790 5806 5798 5799 5814 5819 5818 5817 5817 5819 5818 5813 5808 5805 5802 5799 5796 5794 5791 5784 5779 5777 5775 5772 5770 5769 5767 5765 5764 5762 5762 5763 5762 5760 5760 5758 5757 5755 5754 5753 5752 5752 5751 5749
5808 5806 5787 5776 5782 5793 5799 5794 5806 5818 5821 5821 5820 5819 5818 5816 5813 5809 5805 5802 5799 5796 5793 5790 5785 5780 5778 5775 5773 5771 5769 5768 5767 5765 5764 5763 5763 5763 5761 5759 5758 5756 5755 5755 5753 5753 5752 5750 5749
5802 5804 5814 5800 5792 5786 5794 5801 5807 5815 5813 5813 5814 5814 5813 5813 5811 5809 5806 5803 5799 5795 5792 5790 5785 5781 5779 5776 5773 5771 5769 5767 5767 5765 5764 5764 5762 5762 5761 5759 5758 5756 5755 5754 5753 5752 5750 5749 5749
5809 5808 5802 5792 5771 5769 5784 5790 5796 5799 5801 5806 5807 5808 5809 5810 5809 5807 5804 5802 5799 5796 5792 5789 5785 5780 5778 5776 5774 5772 5769 5767 5766 5764 5763 5761 5761 5760 5759 5758 5757 5755 5753 5752 5750 5749 5748 5747 5746
5793 5794 5793 5793 5789 5773 5771 5786 5807 5802 5802 5802 5804 5805 5804 5804 5804 5803 5801 5799 5797 5794 5790 5785 5782 5779 5776 5774 5772 5770 5768 5767 5765 5763 5762 5760 5758 5757 5756 5756 5755 5753 5752 5750 5748 5747 5746 5745 5744
5796 5793 5789 5776 5774 5780 5778 5783 5806 5804 5805 5803 5801 5801 5801 5800 5800 5799 5797 5794 5792 5789 5786 5783 5780 5777 5775 5772 5770 5767 5766 5764 5763 5762 5761 5759 5757 5756 5755 5754 5753 5751 5750 5749 5747 5745 5744 5742 5741